CW4226 Weather Reports


Display with metric or nautical units.
time (UTC)temp
F
wind
direction
speed
MPH
gust
MPH
rain 1hr
in
rain 24hr
in
rain mn
in
humidity
%
barometer
mb
20260831133625 70 66 2.0 2.0 0.00 0.04 0.04 81 1017.2
20260831133120 69 72 0.0 2.0 0.00 0.04 0.04 83 1017.2
20260831133007 68 101 0.0 1.0 0.00 0.06 0.04 87 1015.5
20260831132616 69 55 1.0 2.0 0.00 0.04 0.04 82 1017.3
20260831132115 69 67 2.0 3.0 0.00 0.04 0.04 83 1017.3
20260831131610 68 50 0.0 2.0 0.00 0.04 0.04 86 1017.2
20260831131506 66 242 0.0 2.0 0.00 0.06 0.04 92 1015.6
20260831131106 68 44 0.0 2.0 0.00 0.04 0.04 86 1017.0
20260831130601 68 43 1.0 2.0 0.00 0.04 0.04 86 1017.2
20260831130056 67 36 1.0 2.0 0.00 0.04 0.04 90 1017.3
20260831130008 65 242 0.0 2.0 0.00 0.06 0.04 95 1015.6
20260831125555 66 259 1.0 3.0 0.00 0.04 0.04 91 1017.3
20260831125051 66 42 0.0 2.0 0.00 0.04 0.04 93 1017.3
20260831124547 65 353 0.0 2.0 0.00 0.04 0.04 93 1017.5
20260831124508 64 219 0.0 1.0 0.00 0.06 0.04 97 1015.6
20260831124043 65 72 0.0 1.0 0.00 0.04 0.04 94 1017.3
20260831123542 65 60 0.0 2.0 0.00 0.04 0.04 94 1017.3
20260831123037 65 54 2.0 2.0 0.00 0.04 0.04 95 1017.5
20260831123008 64 219 0.0 0.0 0.00 0.06 0.04 97 1015.7
20260831122536 65 45 0.0 2.0 0.00 0.04 0.04 95 1017.5
20260831122032 64 57 1.0 2.0 0.00 0.04 0.04 95 1017.4
20260831121526 64 77 2.0 2.0 0.00 0.04 0.04 96 1017.4
20260831121509 64 219 0.0 1.0 0.00 0.06 0.04 98 1015.8
20260831121023 64 11 0.0 1.0 0.00 0.04 0.04 96 1017.6
20260831120522 64 69 0.0 1.0 0.00 0.04 0.04 97 1017.4
20260831120017 64 51 2.0 2.0 0.00 0.04 0.04 97 1017.2
20260831120011 64 219 0.0 1.0 0.00 0.06 0.04 98 1015.6
20260831115513 64 82 2.0 2.0 0.00 0.04 0.04 97 1017.4
20260831115009 64 30 2.0 2.0 0.00 0.04 0.04 97 1017.5
20260831114511 64 219 0.0 1.0 0.00 0.06 0.04 98 1015.8
20260831114507 63 76 2.0 2.0 0.00 0.04 0.04 97 1017.6
20260831114003 64 40 2.0 2.0 0.00 0.04 0.04 97 1017.6
20260831113502 64 60 1.0 2.0 0.00 0.04 0.04 97 1017.5
20260831113009 64 219 0.0 0.0 0.00 0.06 0.04 98 1016.0
20260831112958 63 81 1.0 2.0 0.00 0.04 0.04 97 1017.6
20260831112457 63 62 1.0 2.0 0.00 0.04 0.04 97 1017.5
20260831111952 63 49 0.0 2.0 0.00 0.04 0.04 97 1017.4
20260831111448 63 50 2.0 3.0 0.00 0.04 0.04 97 1017.2
20260831110943 63 59 2.0 2.0 0.00 0.04 0.04 97 1017.5
20260831110438 63 91 0.0 2.0 0.00 0.04 0.04 97 1017.3
20260831110008 63 219 0.0 0.0 0.00 0.06 0.04 98 1015.6
20260831105937 63 74 2.0 2.0 0.00 0.04 0.04 97 1017.2
20260831105433 63 35 2.0 2.0 0.00 0.04 0.04 97 1017.0
20260831104928 63 48 0.0 2.0 0.00 0.04 0.04 97 1017.0
20260831104507 63 219 0.0 0.0 0.00 0.06 0.04 98 1015.3
20260831104424 63 58 1.0 2.0 0.00 0.04 0.04 97 1016.8
20260831103920 63 53 0.0 2.0 0.00 0.04 0.04 97 1016.9
20260831103420 63 63 0.0 2.0 0.00 0.04 0.04 97 1016.9
20260831103009 63 219 0.0 1.0 0.00 0.06 0.04 98 1015.2
20260831102915 63 45 1.0 2.0 0.00 0.04 0.04 97 1016.8
20260831102410 63 70 1.0 2.0 0.00 0.04 0.04 97 1016.5
20260831101905 63 61 0.0 2.0 0.00 0.04 0.04 97 1016.8
20260831101510 63 219 0.0 1.0 0.00 0.06 0.04 98 1015.1
20260831101400 63 28 1.0 2.0 0.00 0.04 0.04 97 1016.8
20260831100856 63 67 1.0 2.0 0.00 0.04 0.04 97 1016.4
20260831100353 63 75 2.0 2.0 0.00 0.04 0.04 97 1016.8
20260831100008 63 219 0.0 1.0 0.00 0.06 0.04 98 1015.0
20260831095852 63 69 2.0 2.0 0.00 0.04 0.04 97 1016.8
20260831095351 63 64 2.0 2.0 0.00 0.04 0.04 97 1016.4
20260831094846 63 52 1.0 2.0 0.00 0.04 0.04 97 1016.5
20260831094507 64 219 0.0 1.0 0.00 0.06 0.04 98 1015.0
20260831094342 63 50 1.0 2.0 0.00 0.04 0.04 97 1016.7
20260831093838 63 51 0.0 2.0 0.00 0.04 0.04 97 1016.4
20260831093333 63 52 1.0 2.0 0.00 0.04 0.04 97 1016.7
20260831093008 64 219 0.0 1.0 0.00 0.06 0.04 98 1015.1
20260831092830 63 61 2.0 2.0 0.00 0.04 0.04 97 1016.8
20260831092325 63 69 2.0 2.0 0.00 0.04 0.04 97 1016.9
20260831091820 63 38 2.0 2.0 0.00 0.04 0.04 97 1016.9
20260831091508 64 219 0.0 0.0 0.00 0.06 0.04 97 1015.3
20260831091316 63 47 2.0 2.0 0.00 0.04 0.04 97 1016.8
20260831090811 63 72 0.0 2.0 0.00 0.04 0.04 97 1016.7
20260831090306 63 43 0.0 2.0 0.00 0.04 0.04 97 1016.5
20260831090006 63 219 0.0 0.0 0.00 0.06 0.04 97 1014.9
20260831085802 63 61 0.0 2.0 0.00 0.04 0.04 97 1016.5
20260831085257 63 52 1.0 2.0 0.00 0.04 0.04 97 1016.8
20260831084752 63 348 0.0 1.0 0.00 0.04 0.04 97 1016.7
20260831084507 63 219 0.0 0.0 0.00 0.06 0.04 97 1014.8
20260831084248 63 52 1.0 2.0 0.00 0.04 0.04 97 1016.4
20260831083744 63 16 0.0 2.0 0.00 0.04 0.04 97 1016.7
20260831083240 63 64 2.0 2.0 0.00 0.04 0.04 97 1016.5
20260831083007 63 219 0.0 0.0 0.00 0.06 0.04 97 1014.9
20260831082738 63 76 1.0 2.0 0.00 0.04 0.04 97 1016.7
20260831082233 63 39 0.0 2.0 0.00 0.04 0.04 97 1016.8
20260831081729 63 57 2.0 2.0 0.00 0.04 0.04 97 1016.7
20260831081507 63 219 0.0 0.0 0.00 0.06 0.04 97 1014.9
20260831081224 63 71 0.0 1.0 0.00 0.04 0.04 97 1016.7
20260831080720 63 47 0.0 1.0 0.00 0.04 0.04 97 1016.2
20260831080219 63 51 2.0 2.0 0.00 0.04 0.04 97 1016.4
20260831080006 63 219 0.0 0.0 0.00 0.06 0.04 97 1014.5
20260831075715 63 53 1.0 2.0 0.00 0.04 0.04 97 1016.3
20260831075211 63 47 1.0 2.0 0.00 0.04 0.04 97 1016.1
20260831074710 63 34 0.0 2.0 0.00 0.04 0.04 97 1016.5
20260831074507 64 219 0.0 0.0 0.00 0.06 0.04 97 1014.6
20260831074210 63 65 1.0 2.0 0.00 0.04 0.04 97 1016.2
20260831073706 63 80 2.0 2.0 0.00 0.04 0.04 97 1016.3
20260831073205 63 66 0.0 2.0 0.00 0.04 0.04 97 1016.4
20260831073007 64 219 0.0 0.0 0.00 0.06 0.04 97 1014.6
20260831072700 63 79 1.0 2.0 0.00 0.04 0.04 97 1016.3
20260831072157 63 58 1.0 2.0 0.00 0.04 0.04 97 1016.2
20260831071656 63 41 0.0 2.0 0.00 0.04 0.04 97 1016.3
20260831071507 64 219 0.0 0.0 0.00 0.06 0.04 97 1014.6
20260831071151 63 50 1.0 2.0 0.00 0.04 0.04 97 1016.5
20260831070650 63 65 1.0 2.0 0.00 0.04 0.04 97 1016.5
20260831070145 63 47 1.0 2.0 0.00 0.04 0.04 97 1016.5
20260831070006 64 219 0.0 1.0 0.01 0.06 0.04 97 1014.8
20260831065644 63 322 0.0 1.0 0.00 0.04 0.04 97 1016.7
20260831065143 63 57 2.0 2.0 0.00 0.04 0.04 97 1016.5
20260831064638 63 22 0.0 1.0 0.00 0.04 0.04 97 1017.0
20260831064506 64 219 0.0 1.0 0.01 0.06 0.04 97 1015.0
20260831064133 63 71 0.0 1.0 0.00 0.04 0.04 97 1016.8
20260831063629 63 290 0.0 2.0 0.00 0.04 0.04 97 1016.8
20260831063124 63 227 1.0 1.0 0.00 0.04 0.04 97 1016.9
20260831063009 64 219 0.0 1.0 0.02 0.06 0.04 96 1015.1
20260831062618 63 73 0.0 1.0 0.00 0.04 0.04 96 1016.9
20260831062118 63 72 0.0 2.0 0.00 0.04 0.04 96 1017.0
20260831061616 63 89 0.0 2.0 0.00 0.04 0.04 96 1017.0
20260831061507 64 219 0.0 1.0 0.02 0.06 0.04 96 1015.1
20260831061112 63 54 1.0 1.0 0.00 0.04 0.04 96 1017.1
20260831060608 64 73 1.0 2.0 0.00 0.04 0.04 96 1016.9
20260831060007 64 219 0.0 1.0 0.01 0.05 0.03 96 1015.3
20260831055602 64 76 0.0 1.0 0.00 0.03 0.03 96 1017.1
20260831055058 64 306 0.0 0.0 0.02 0.03 0.03 96 1016.9
20260831054557 64 70 1.0 2.0 0.05 0.03 0.03 96 1017.2
20260831054506 65 219 0.0 1.0 0.01 0.05 0.03 96 1015.3
20260831054056 64 299 0.0 1.0 0.05 0.03 0.03 96 1017.4
20260831053555 65 58 2.0 2.0 0.00 0.02 0.02 96 1017.2
20260831053050 65 47 2.0 2.0 0.00 0.02 0.02 96 1017.0
20260831052549 65 89 2.0 2.0 0.00 0.02 0.02 96 1017.1
20260831052049 65 66 0.0 1.0 0.00 0.02 0.02 96 1017.1
20260831051547 65 17 0.0 1.0 0.00 0.02 0.02 96 1017.0
20260831051507 65 219 0.0 0.0 0.01 0.04 0.02 96 1015.3
20260831051047 65 62 1.0 2.0 0.00 0.02 0.02 96 1017.2
20260831050547 65 55 0.0 2.0 0.00 0.02 0.02 96 1017.1
20260831050045 65 71 1.0 2.0 0.00 0.02 0.02 96 1017.3
20260831050007 65 219 0.0 0.0 0.02 0.04 0.02 96 1015.2
20260831045545 65 89 0.0 1.0 0.02 0.02 0.02 96 1017.1
20260831045040 65 89 0.0 2.0 0.02 0.02 0.02 96 1017.1
20260831044536 65 89 0.0 2.0 0.00 0.02 0.02 96 1017.3
20260831044507 66 219 0.0 0.0 0.02 0.04 0.02 96 1015.3
20260831044031 65 93 0.0 1.0 0.00 0.02 0.02 95 1017.1
20260831043531 65 66 0.0 2.0 0.02 0.02 0.02 95 1017.0
20260831043026 65 82 1.0 2.0 0.02 0.02 0.02 95 1017.1
20260831043007 66 219 0.0 0.0 0.01 0.03 0.01 95 1015.2
20260831042526 65 83 1.0 2.0 0.02 0.01 0.01 95 1017.1
20260831042026 65 56 1.0 2.0 0.02 0.01 0.01 95 1017.1
20260831041516 65 92 0.0 2.0 0.02 0.01 0.01 95 1017.2
20260831041507 66 219 0.0 0.0 0.01 0.03 0.01 95 1015.3
20260831041015 65 71 1.0 2.0 0.02 0.00 0.00 94 1017.1
20260831040510 66 85 1.0 2.0 0.09 0.00 0.00 94 1017.1
20260831040009 66 94 0.0 2.0 0.14 0.03 0.03 94 1017.1
20260831035507 66 83 1.0 2.0 0.05 0.01 0.01 94 1017.3
20260831035002 66 77 0.0 1.0 0.00 0.00 0.00 94 1017.1
20260831034506 66 219 0.0 0.0 0.00 0.00 0.00 93 1015.3
20260831034456 66 73 2.0 2.0 0.00 0.00 0.00 94 1017.2
20260831033952 65 81 0.0 2.0 0.00 0.00 0.00 94 1017.0
20260831033448 65 64 0.0 2.0 0.00 0.00 0.00 94 1017.2
20260831033007 66 219 0.0 0.0 0.00 0.00 0.00 93 1015.1
20260831032943 66 84 1.0 2.0 0.00 0.00 0.00 94 1017.2
20260831032437 66 103 0.0 1.0 0.00 0.00 0.00 93 1016.9
20260831031933 66 52 2.0 2.0 0.00 0.00 0.00 93 1016.9
20260831031432 66 58 1.0 3.0 0.00 0.00 0.00 93 1016.9
20260831030931 66 76 0.0 2.0 0.00 0.00 0.00 93 1017.1
20260831030430 66 62 2.0 2.0 0.00 0.00 0.00 93 1017.3
20260831030007 66 219 0.0 0.0 0.00 0.00 0.00 93 1015.3
20260831025929 66 74 1.0 2.0 0.00 0.00 0.00 93 1017.1
20260831025428 66 63 2.0 2.0 0.00 0.00 0.00 93 1017.0
20260831024924 66 72 1.0 2.0 0.00 0.00 0.00 93 1017.3
20260831024424 66 48 0.0 2.0 0.00 0.00 0.00 93 1017.2
20260831023925 66 89 0.0 2.0 0.00 0.00 0.00 93 1017.1
20260831023423 66 34 1.0 2.0 0.00 0.00 0.00 93 1017.2
20260831023008 66 219 0.0 0.0 0.00 0.00 0.00 92 1015.4
20260831022918 66 141 0.0 2.0 0.00 0.00 0.00 92 1016.9
20260831022417 66 70 1.0 2.0 0.00 0.00 0.00 92 1017.0
20260831021912 66 53 2.0 2.0 0.00 0.00 0.00 92 1017.2
20260831021506 67 219 0.0 0.0 0.00 0.00 0.00 92 1015.4
20260831021411 66 73 2.0 2.0 0.00 0.00 0.00 92 1017.1
20260831020907 66 62 0.0 2.0 0.00 0.00 0.00 92 1017.1
20260831020407 66 68 1.0 3.0 0.00 0.00 0.00 92 1017.1
20260831020008 67 219 0.0 1.0 0.00 0.00 0.00 92 1015.4
20260831015902 66 34 1.0 3.0 0.00 0.00 0.00 92 1017.1
20260831015358 66 75 2.0 2.0 0.00 0.00 0.00 92 1017.1
20260831014858 66 43 1.0 3.0 0.00 0.00 0.00 92 1017.3
20260831014507 67 219 0.0 0.0 0.00 0.00 0.00 92 1015.4
20260831014353 66 41 1.0 2.0 0.00 0.00 0.00 92 1017.2
20260831013849 66 29 0.0 2.0 0.00 0.00 0.00 92 1017.0
20260831013349 66 81 2.0 2.0 0.00 0.00 0.00 92 1017.1
20260831013007 67 219 0.0 0.0 0.00 0.00 0.00 92 1015.4
20260831012844 66 66 1.0 2.0 0.00 0.00 0.00 92 1017.1
20260831012340 66 62 2.0 2.0 0.00 0.00 0.00 92 1017.1
20260831011839 67 60 1.0 2.0 0.00 0.00 0.00 92 1017.1
20260831011507 67 219 0.0 0.0 0.00 0.00 0.00 92 1015.0
20260831011334 67 73 1.0 2.0 0.00 0.00 0.00 92 1016.8
20260831010830 67 54 2.0 2.0 0.00 0.00 0.00 92 1016.7
20260831010330 67 74 0.0 2.0 0.00 0.00 0.00 92 1016.7
20260831010007 67 219 0.0 0.0 0.00 0.00 0.00 92 1015.0
20260831005826 67 82 0.0 2.0 0.00 0.00 0.00 92 1016.5
20260831005321 67 48 0.0 2.0 0.00 0.00 0.00 91 1016.5
20260831004815 67 57 1.0 2.0 0.00 0.00 0.00 91 1016.5
20260831004312 67 57 2.0 2.0 0.00 0.00 0.00 91 1016.4
20260831003807 67 64 2.0 2.0 0.00 0.00 0.00 91 1016.4
20260831003303 67 55 1.0 1.0 0.00 0.00 0.00 91 1016.1
20260831003008 67 219 0.0 0.0 0.00 0.00 0.00 91 1014.5
20260831002802 67 51 2.0 2.0 0.00 0.00 0.00 91 1015.9
20260831002256 67 53 1.0 2.0 0.00 0.00 0.00 91 1016.4
20260831001752 67 42 0.0 2.0 0.00 0.00 0.00 91 1016.2
20260831001507 67 219 0.0 0.0 0.00 0.00 0.00 90 1014.5
20260831001248 67 37 0.0 2.0 0.00 0.00 0.00 90 1016.0
20260831000745 67 79 1.0 2.0 0.00 0.00 0.00 90 1015.7
20260831000244 67 50 0.0 2.0 0.00 0.00 0.00 90 1015.7
20260830235743 67 72 1.0 2.0 0.00 0.00 0.00 90 1015.8
20260830235238 67 63 0.0 2.0 0.00 0.00 0.00 90 1015.7
20260830234733 67 67 0.0 2.0 0.00 0.00 0.00 89 1015.6
20260830234507 68 219 0.0 0.0 0.00 0.00 0.00 89 1014.3
20260830234229 67 79 1.0 2.0 0.00 0.00 0.00 89 1015.8
20260830233724 67 48 1.0 2.0 0.00 0.00 0.00 89 1015.9
20260830233220 67 36 0.0 2.0 0.00 0.00 0.00 89 1016.0
20260830232715 68 59 2.0 2.0 0.00 0.00 0.00 89 1015.8
20260830232211 68 69 0.0 2.0 0.00 0.00 0.00 89 1015.7
20260830231708 68 58 2.0 2.0 0.00 0.00 0.00 89 1015.8
20260830231507 68 219 0.0 1.0 0.00 0.00 0.00 89 1014.3
20260830231207 68 85 1.0 2.0 0.00 0.00 0.00 89 1015.7
20260830230707 68 59 0.0 2.0 0.00 0.00 0.00 89 1015.8
20260830230202 68 349 0.0 1.0 0.00 0.00 0.00 89 1015.7
20260830225657 68 48 0.0 2.0 0.00 0.00 0.00 89 1016.1
20260830225157 68 55 1.0 2.0 0.00 0.00 0.00 89 1016.1
20260830224656 68 56 0.0 2.0 0.00 0.00 0.00 89 1016.0
20260830224153 68 49 1.0 2.0 0.00 0.00 0.00 88 1015.9
20260830223650 68 39 2.0 2.0 0.02 0.00 0.00 88 1015.9
20260830223149 68 95 0.0 2.0 0.02 0.00 0.00 88 1015.9
20260830223007 68 227 0.0 1.0 0.00 0.00 0.00 88 1014.5
20260830222644 68 55 1.0 2.0 0.00 0.00 0.00 88 1015.9
20260830222140 68 72 1.0 2.0 0.00 0.00 0.00 87 1015.9
20260830221635 68 23 0.0 1.0 0.00 0.00 0.00 87 1015.9
20260830221508 68 227 0.0 1.0 0.00 0.00 0.00 87 1014.6
20260830221131 68 47 0.0 1.0 0.00 0.00 0.00 86 1016.0
20260830220627 68 315 0.0 1.0 0.00 0.00 0.00 86 1016.0
20260830220125 68 56 2.0 2.0 0.00 0.00 0.00 85 1016.2
20260830220006 69 224 0.0 2.0 0.00 0.00 0.00 84 1014.6
20260830215624 69 239 0.0 2.0 0.00 0.00 0.00 84 1016.0
20260830215119 69 29 1.0 2.0 0.00 0.00 0.00 83 1015.9
20260830214614 69 82 0.0 3.0 0.00 0.00 0.00 82 1015.9
20260830214506 70 135 1.0 3.0 0.00 0.00 0.00 80 1014.6
20260830214109 70 269 0.0 2.0 0.00 0.00 0.00 80 1016.0
20260830213608 71 86 2.0 2.0 0.00 0.00 0.00 78 1016.0
20260830213104 71 84 3.0 3.0 0.00 0.00 0.00 75 1015.9
20260830213008 73 44 1.0 6.0 0.00 0.00 0.00 74 1014.3
20260830212601 72 288 0.0 3.0 0.00 0.00 0.00 73 1015.8
20260830212100 73 141 0.0 3.0 0.00 0.00 0.00 70 1015.7
20260830211555 74 18 2.0 4.0 0.00 0.00 0.00 66 1015.4
20260830211507 74 110 2.0 6.0 0.00 0.00 0.00 65 1013.9
20260830211055 74 36 2.0 3.0 0.00 0.00 0.00 65 1015.1
20260830210550 74 91 3.0 4.0 0.00 0.00 0.00 68 1015.3
20260830210049 74 40 0.0 1.0 0.00 0.00 0.00 70 1015.1
20260830210007 75 246 0.0 2.0 0.00 0.00 0.00 69 1013.5
20260830205547 75 274 0.0 1.0 0.00 0.00 0.00 69 1015.1
20260830205043 75 257 0.0 2.0 0.00 0.00 0.00 66 1015.0
20260830204542 75 54 0.0 2.0 0.00 0.00 0.00 65 1014.8
20260830204507 76 246 0.0 2.0 0.00 0.00 0.00 66 1013.3
20260830204042 76 356 0.0 1.0 0.00 0.00 0.00 64 1014.9
20260830203538 76 233 0.0 1.0 0.00 0.00 0.00 65 1015.0
20260830203033 76 48 1.0 2.0 0.00 0.00 0.00 65 1014.7
20260830203008 76 246 0.0 2.0 0.00 0.00 0.00 65 1013.2
20260830202532 76 347 0.0 1.0 0.00 0.00 0.00 66 1014.9
20260830202028 76 1 1.0 1.0 0.00 0.00 0.00 66 1014.8
20260830201527 76 246 0.0 2.0 0.00 0.00 0.00 64 1014.8
20260830201023 76 217 0.0 1.0 0.00 0.00 0.00 66 1014.9
20260830200518 76 238 0.0 2.0 0.00 0.00 0.00 64 1014.9
20260830200017 77 214 0.0 3.0 0.00 0.00 0.00 64 1014.8
20260830200007 77 244 1.0 2.0 0.00 0.00 0.00 65 1013.1
20260830195513 77 293 0.0 2.0 0.00 0.00 0.00 61 1014.6
20260830195010 77 248 0.0 2.0 0.00 0.00 0.00 61 1014.8
20260830194510 77 236 1.0 3.0 0.00 0.00 0.00 59 1015.1
20260830194507 77 244 1.0 2.0 0.00 0.00 0.00 61 1013.3
20260830194010 77 246 2.0 2.0 0.00 0.00 0.00 60 1015.0
20260830193509 77 238 1.0 2.0 0.00 0.00 0.00 58 1014.8
20260830193008 77 242 1.0 3.0 0.00 0.00 0.00 58 1013.4
20260830193005 77 351 0.0 2.0 0.00 0.00 0.00 58 1015.2
20260830192500 77 288 0.0 2.0 0.00 0.00 0.00 60 1015.3
20260830191955 77 212 0.0 3.0 0.00 0.00 0.00 58 1015.0
20260830191449 78 229 4.0 4.0 0.00 0.00 0.00 58 1015.2
20260830190945 78 229 3.0 4.0 0.00 0.00 0.00 56 1015.3
20260830190440 78 262 1.0 2.0 0.00 0.00 0.00 58 1015.5
20260830190007 78 208 2.0 5.0 0.00 0.00 0.00 57 1013.8
20260830185939 77 66 2.0 3.0 0.00 0.00 0.00 57 1015.5
20260830185434 78 251 1.0 5.0 0.00 0.00 0.00 58 1015.5
20260830184930 78 72 0.0 2.0 0.00 0.00 0.00 59 1015.3
20260830184508 78 232 1.0 3.0 0.00 0.00 0.00 60 1013.9
20260830184429 79 296 0.0 2.0 0.00 0.00 0.00 59 1015.6
20260830183924 79 283 0.0 2.0 0.00 0.00 0.00 58 1015.3
20260830183423 78 222 0.0 2.0 0.00 0.00 0.00 57 1015.4
20260830183008 78 226 1.0 2.0 0.00 0.00 0.00 58 1013.9
20260830182919 78 76 0.0 2.0 0.00 0.00 0.00 57 1015.7
20260830182415 78 83 1.0 3.0 0.00 0.00 0.00 56 1015.6
20260830181911 78 57 2.0 2.0 0.00 0.00 0.00 57 1015.8
20260830181508 76 240 0.0 2.0 0.00 0.00 0.00 64 1014.2
20260830181406 77 58 2.0 2.0 0.00 0.00 0.00 62 1015.7
20260830180901 76 238 0.0 1.0 0.00 0.00 0.00 63 1015.8
20260830180400 76 245 1.0 3.0 0.00 0.00 0.00 67 1015.8
20260830180007 76 240 1.0 3.0 0.00 0.00 0.00 68 1014.2
20260830175859 76 233 1.0 2.0 0.00 0.00 0.00 68 1015.7
20260830175354 76 34 0.0 2.0 0.00 0.00 0.00 68 1016.0
20260830174848 77 238 1.0 2.0 0.00 0.00 0.00 66 1015.8
20260830174506 77 265 0.0 3.0 0.00 0.00 0.00 67 1014.4
20260830174343 77 281 1.0 2.0 0.00 0.00 0.00 66 1016.1
20260830173839 78 227 3.0 4.0 0.00 0.00 0.00 65 1016.1
20260830173334 78 243 1.0 3.0 0.00 0.00 0.00 65 1015.8
20260830173008 78 266 1.0 2.0 0.00 0.00 0.00 66 1014.1
20260830172830 78 248 1.0 1.0 0.00 0.00 0.00 65 1015.6
20260830172326 78 287 0.0 2.0 0.00 0.00 0.00 62 1015.9
20260830171822 78 242 2.0 2.0 0.00 0.00 0.00 64 1015.9
20260830171506 77 276 1.0 3.0 0.00 0.00 0.00 67 1014.3
20260830171318 78 242 2.0 2.0 0.00 0.00 0.00 66 1016.0
20260830170812 77 38 0.0 2.0 0.00 0.00 0.00 65 1015.9
20260830170311 77 310 0.0 2.0 0.00 0.00 0.00 66 1016.1
20260830170006 77 258 2.0 3.0 0.00 0.00 0.00 65 1014.5
20260830165810 77 245 1.0 3.0 0.00 0.00 0.00 64 1016.1
20260830165306 77 291 0.0 4.0 0.00 0.00 0.00 66 1016.3
20260830164803 79 356 2.0 3.0 0.00 0.00 0.00 61 1016.2
20260830164506 77 168 0.0 2.0 0.00 0.00 0.00 67 1014.5
20260830164259 78 17 0.0 2.0 0.00 0.00 0.00 68 1016.4
20260830163755 76 283 0.0 2.0 0.00 0.00 0.00 68 1016.3
20260830163250 76 193 0.0 2.0 0.00 0.00 0.00 65 1016.1
20260830163008 76 242 0.0 2.0 0.00 0.00 0.00 68 1014.8
20260830162744 76 286 0.0 1.0 0.00 0.00 0.00 66 1016.7
20260830162241 75 269 0.0 2.0 0.00 0.00 0.00 66 1016.5
20260830161736 75 275 0.0 1.0 0.00 0.00 0.00 66 1016.7
20260830161506 75 227 2.0 3.0 0.00 0.00 0.00 67 1014.8
20260830161230 75 254 1.0 3.0 0.00 0.00 0.00 67 1016.5
20260830160726 75 222 2.0 2.0 0.00 0.00 0.00 69 1016.8
20260830160225 75 251 3.0 4.0 0.00 0.00 0.00 66 1016.8
20260830160006 76 245 1.0 3.0 0.00 0.00 0.00 66 1015.0
20260830155722 76 264 1.0 2.0 0.00 0.00 0.00 66 1016.8
20260830155218 76 234 3.0 4.0 0.00 0.00 0.00 65 1016.9
20260830154713 76 222 0.0 3.0 0.00 0.00 0.00 67 1017.0
20260830154209 75 25 2.0 3.0 0.00 0.00 0.00 65 1017.2
20260830153706 74 39 0.0 1.0 0.00 0.00 0.00 66 1017.1
20260830153205 73 86 1.0 2.0 0.00 0.00 0.00 69 1016.9